Powrót do katalogu

ARIANE 1 DEB

AktywnySSO
NORAD 39105·DEBRIS·🇫🇷 France

Wystrzelony Feb 22, 1986 z Guiana Space Centre

Loading…

Następne Przeloty (najbliższe 24 godziny)

TLE

Starzejące sięSource: Space-Track

Epoka: Sep 5, 2026, 21:03 UTC

1 39105U 86019VT  26248.87772150  .00000410  00000-0  22858-3 0  9994
2 39105  98.5500 257.5166 0115447  52.8487 308.3164 14.12591901204403

Śledź ARIANE 1 DEB w czasie rzeczywistym z AllMySat

Download on the App Store